Weather in Kaifeng

China     34°47′00″N   114°20′42″E
temp.,
°C
wind,
m/s
gust,
m/s
humid.,
%
clouds,
%
prec.,
mm/h
press.,
hPa
HPBL,
m
13 may, thu
thu1323:00+21sse3661100 0.0 1008102
02:00+19s338238 0.0 100754
05:00+18sse339037 0.0 100746
08:00+23se457155 0.0 1008506
11:00+28se3446100 0.0 10071550
14:00+31se654196 0.0 10052361
17:00+28se6655100 0.0 1004786
20:00+24se4970100 0.0 1005287
14 may, fri
fri1423:00+22se398399 0.1 1006258
02:00+21ese3889100 0.1 1005225
05:00+20ese3793100 1.1 1004283
08:00+20e4895100 7.9 1004340
11:00+20ese41098100 21.9 1003618
14:00+20ene4795100 24.0 1002373
17:00+20ene4798100 7.4 1001354
20:00+20ene3698100 19.3 1003296
15 may, sat
sat1523:00+20nne3499100 0.8 1003171
02:00+19nne3598100 0.8 1002189
05:00+19nne3598100 0.1 1002191
08:00+21nne359393 0.1 1004251
11:00+23nne3481100 0.0 1004661
14:00+26ene3468100 0.2 10021001
17:00+26ne3667100 0.1 1001501
20:00+24nne3874100 0.1 1003204
16 may, sun
sun1623:00+15nne121879100 0.2 1007689
02:00+15nne111879100 0.2 1007781
05:00+15nne101772100 0.0 1009863
08:00+15n91671100 0.0 1011904
11:00+17n91567100 0.0 10111003
14:00+19n71255100 0.0 10111205
17:00+18n61244100 0.0 1012816
20:00+17nnw71343100 0.0 1013510
17 may, mon
mon1723:00+16wnw61055100 0.0 1013243
02:00+15nw6971100 0.0 1012210
05:00+15wnw61073100 0.0 1013243
08:00+15w4873100 0.0 1014237
11:00+15wnw5778100 0.3 1016158
14:00+17wnw3468100 0.4 1014206
17:00+20s334889 0.0 1013746
20:00+16ssw336381 0.0 101434